Location: *
(43.9905°S, 176.4941°W)
Time: 04:32:19
(UTC+00:00)

Cosmos 1766 - Pass Details

Date: 08 December 2019
Orbit: 521 x 545 km, 82.5° (Epoch: 24 January)

Event Time Altitude Azimuth Distance (km) Brightness Sun altitude
Exits shadow 10:09:13 26° 308° (NW) 1,083 4.6 -20.3°
Maximum altitude 10:10:54 39° 257° (WSW) 804 4.4 -20.4°
Drops below altitude 10° 10:14:38 10° 186° (S) 1,798 7.0 -20.6°
Sets 10:16:54 0° 178° (S) 2,697 8.1 -20.8°
